Location: ????????
(38.4362°N, 22.8767°E)
Time: 17:09:35
(UTC+00:00)

ACS3 Solar Sail - Pass Details

Date: 02 July 2024
Orbit: 992 x 1023 km, 97.4° (Epoch: 14 July)

Event Time Altitude Azimuth Distance (km) Brightness Sun altitude
Exits shadow 20:02:17 26° 176° (S) 1,840 5.8 -19.2°
Maximum altitude 20:05:59 77° 258° (WSW) 1,020 4.9 -19.6°
Drops below altitude 10° 20:12:13 10° 345° (NNW) 2,763 8.2 -20.3°
Sets 20:14:42 0° 347° (NNW) 3,717 9.1 -20.6°
